Theta_e
323 324 325 324 324 324 323 324 325 325 326 326 327 327 330 326 324 323 323 319 323 321
326 325 324 325 325 325 325 330 328 328 325 325 328 330 328 327 325 324 323 323 323 323
326 328 329 328 328 328 326 326 332 331 327 324 324 324 325 322 324 322 325 326 325 326
323 324 324 322 322 320 318 319 321 325 323 322 320 319 318 319 321 324 323 324 326 325
315 316 316 317 319 321 319 321 324 328 324 326 325 323 320 320 321 322 325 327 326 325
307 308 309 309 313 312 311 311 312 314 314 315 315 317 317 314 314 315 319 320 319 319
302 303 304 305 306 307 308 307 307 308 310 310 310 310 309 308 307 307 308 308 310 310
301 301 302 303 303 304 304 304 305 306 306 305 308 306 303 303 302 302 302 303 305 305
301 301 300 300 300 301 300 301 302 302 302 302 306 300 302 300 298 298 298 297 299 301
301 300 299 300 299 298 297 297 298 298 299 298 299 298 298 300 297 296 296 295 296 297
300 299 298 297 296 295 294 294 295 296 296 296 298 299 297 298 295 294 295 295 295 295
298 296 295 293 292 291 291 291 292 293 293 293 294 296 296 295 293 293 293 295 295 296
295 293 291 289 289 289 288 290 291 291 291 293 292 294 294 294 295 293 292 293 294 297
290 290 290 288 287 287 287 287 287 288 289 290 291 294 295 295 296 295 295 295 294 295
Wind_Speed
5 2 2 3 2 4 4 3 3 5 6 7 7 5 8 3 4 4 4 4 5 2
4 3 4 6 4 4 3 3 5 6 6 5 4 9 4 6 4 2 2 3 4 4
6 5 5 4 3 1 1 2 3 6 3 3 3 1 2 3 2 2 2 1 3 6
6 6 6 6 5 5 4 6 5 1 1 2 3 4 5 3 1 4 4 5 7 10
9 8 7 6 7 6 6 5 2 2 1 3 4 4 5 5 5 6 7 8 5 16
8 8 7 7 7 8 7 7 8 7 7 6 6 5 5 5 6 6 4 3 4 5
8 7 7 7 8 7 6 7 7 7 6 7 5 6 6 6 6 5 4 3 3 4
7 6 7 7 7 6 8 7 6 6 6 6 6 6 6 6 6 6 5 5 5 5
7 7 7 7 7 7 8 8 7 8 7 7 5 4 6 6 4 4 5 6 6 5
6 7 6 6 6 6 7 6 6 6 6 6 6 7 7 9 5 5 5 6 5 6
6 6 5 6 6 5 4 5 5 6 6 6 6 9 9 9 5 5 6 6 6 6
6 5 5 5 4 2 2 3 3 5 7 7 7 10 8 6 5 5 6 6 6 6
4 4 4 4 4 2 2 4 4 6 6 9 7 9 7 2 2 4 5 6 7 13
4 5 3 4 3 4 5 5 4 5 6 6 6 5 3 5 3 4 6 6 7 6
Wind_Direction
89 115 157 203 223 249 243 264 152 179 194 190 189 206 232 218 230 155 210 191 145 178
147 221 251 268 250 260 251 240 216 189 216 216 209 236 229 227 225 136 246 186 194 220
55 58 56 52 24 346 281 247 222 180 175 112 170 259 265 251 241 187 190 272 265 264
64 64 60 47 36 46 9 343 351 12 192 211 251 226 228 242 292 273 282 260 263 272
62 59 52 46 43 39 35 18 22 7 237 299 283 254 258 260 245 256 265 258 277 275
46 53 43 36 38 43 42 31 26 31 35 25 8 41 46 53 40 44 17 4 266 268
54 56 53 43 36 37 35 39 29 22 24 15 12 37 18 21 19 19 7 345 310 289
68 60 57 49 41 34 34 22 18 18 16 15 13 19 23 24 17 9 359 349 332 327
77 69 60 50 37 32 25 22 23 15 10 9 13 44 49 45 15 345 331 314 310 310
86 77 65 66 58 38 29 20 20 8 359 345 332 340 343 348 332 319 313 306 306 309
81 86 73 61 52 36 15 7 343 330 320 312 305 303 301 310 311 309 298 287 285 285
48 58 55 46 24 2 348 307 299 298 297 296 294 296 304 331 332 318 305 294 286 279
36 51 41 3 329 292 310 290 300 294 292 296 294 297 301 114 302 296 297 291 276 274
17 345 351 336 323 310 307 297 292 288 290 287 283 293 306 315 306 295 295 284 281 271